Regional Weather Roundup
Issued by NWS

Home | Current Version | Previous Version | Graphics & Text | Print | Product List | Glossary On
Versions: 1 2 3 4 5 6 7 8 9 10 11 12 13 14 15 16 17 18 19 20 21 22 23 24 25 26 27 28 29 30 31 32 33 34 35 36 37 38 39 40 41 42 43 44 45 46 47 48 49 50
000
ASUS43 KIND 280009
RWRIN

WEATHER ROUNDUP FOR INDIANA
NATIONAL WEATHER SERVICE INDIANAPOLIS IN
800 PM EDT SAT AUG 27 2016

NOTE: "FAIR" INDICATES FEW OR NO CLOUDS BELOW 12,000 FEET WITH NO
SIGNIFICANT WEATHER AND/OR OBSTRUCTIONS TO VISIBILITY.

* - STATION DOES NOT REPORT WEATHER SUCH AS PRECIPITATION OR FOG.

+ - STATION NOT QUALITY CONTROLLED BY THE NATIONAL WEATHER SERVICE.
    USE DATA WITH CAUTION...ESPECIALLY DEWPOINT AND RELATIVE
    HUMIDITY OBSERVATIONS.

INZ001>003-010>013-019-020-280100-
NORTHWEST INDIANA

CITY           SKY/WX    TMP DP  RH WIND       PRES   REMARKS
GARY /AIRPORT/ MOCLDY    84  72  65 SW7       30.04R
KNOX *+        CLEAR     79  52  38 S5        30.05S
LA PORTE +     CLEAR     81  79  94 S3        30.06R
6HR MIN TEMP:  80; 6HR MAX TEMP:  85;

MICHIGAN CITY+ PTCLDY    79  73  83 MISG      30.05R
MONTICELLO +   CLEAR     82  69  64 SW3       30.06R
6HR MIN TEMP:  79; 6HR MAX TEMP:  84;

RENSSELAER +   CLEAR     81  73  78 S3        30.06S
VALPARAISO     CLEAR     80  73  79 S7        30.05S
6HR MIN TEMP:  79; 6HR MAX TEMP:  85;


$$

LMZ046-743>745-280100-
SOUTHERN LAKE MICHIGAN

STATION/POSITION TIME  TEMP    WIND        PRES    WAVE
                       AIR SEA DIR/SP/G            HT
                 (UTC) (F)     (DEG/KT/KT) (MB)    (FT)
BURNS HARBOR     2300   83     220/ 11/ 13 1016.6S
MICHIGAN CITY    2300   82     160/  9/ 11   N/A
5NW MICH CITY    0000   80 76  180/  6/  8   N/A     1

$$

INZ004-005-014>016-021>024-280100-
NORTH CENTRAL INDIANA

CITY           SKY/WX    TMP DP  RH WIND       PRES   REMARKS
GOSHEN         CLEAR     79  70  74 S7        30.07S
6HR MIN TEMP:  76; 6HR MAX TEMP:  83;

LOGANSPORT +   CLEAR     79  72  78 CALM      30.09R
PERU/GRISSOM   CLEAR     81  73  77 S5        30.08R
6HR MIN TEMP:  78; 6HR MAX TEMP:  84;

ROCHESTER +    CLEAR     82  73  74 S5        30.09R
SOUTH BEND     CLEAR     78  73  84 S8        30.06R
6HR MIN TEMP:  77; 6HR MAX TEMP:  82;

WARSAW +       PTCLDY    79  77  94 CALM      30.09R

$$

INZ006>009-017-018-025>027-280100-
NORTHEAST INDIANA

CITY           SKY/WX    TMP DP  RH WIND       PRES   REMARKS
ANGOLA *+      PTCLDY    79  72  78 CALM      30.09S
AUBURN +       CLEAR     79  70  73 CALM      30.10S
FORT WAYNE     PTCLDY    78  71  79 S5        30.10R
6HR MIN TEMP:  78; 6HR MAX TEMP:  82;

HUNTINGTON +   CLEAR     78  72  80 S3        30.10R
6HR MIN TEMP:  77; 6HR MAX TEMP:  81;


$$

INZ028-029-035-036-043>045-051>053-280100-
WEST CENTRAL INDIANA

CITY           SKY/WX    TMP DP  RH WIND       PRES   REMARKS
CRAWFORDSVL +  CLEAR     79  74  86 SE3       30.09R
6HR MIN TEMP:  79; 6HR MAX TEMP:  83; 6HR PCP:  0.01;

GREENCASTLE +  CLEAR     79  75  89 CALM      30.10R
LAFAYETTE      CLEAR     82  73  74 CALM      30.06R
6HR MIN TEMP:  81; 6HR MAX TEMP:  86;

TERRE HAUTE    PTCLDY    83  72  69 CALM      30.07S
6HR MIN TEMP:  81; 6HR MAX TEMP:  88;


$$

INZ030>032-037>040-046>048-054>057-064-065-280100-
CENTRAL INDIANA

CITY           SKY/WX    TMP DP  RH WIND       PRES   REMARKS
COLUMBUS       CLEAR     81  77  89 SE5       30.09R
INDIANAPOLIS   PTCLDY    81  72  74 S5        30.09R
6HR MIN TEMP:  75; 6HR MAX TEMP:  83;

-EAGLE CREEK   CLEAR     82  71  69 CALM      30.09R
6HR MIN TEMP:  76; 6HR MAX TEMP:  84;

KOKOMO *+      PTCLDY    79  73  83 S6        30.09R
6HR MIN TEMP:  77; 6HR MAX TEMP:  84;

MARION +       CLEAR     78  72  80 S3        30.11S
MT COMFORT *+  CLEAR     79  73  83 CALM      30.11R
SHELBYVILLE    CLOUDY    82  73  74 CALM      30.09R
6HR MIN TEMP:  74; 6HR MAX TEMP:  85; 6HR PCP:  0.01;

ZIONSVILLE +   CLEAR     78  73  84 CALM      30.11R
6HR MIN TEMP:  74; 6HR MAX TEMP:  81;


$$

INZ033-034-041-042-049-050-058-059-280100-
EAST CENTRAL INDIANA

CITY           SKY/WX    TMP DP  RH WIND       PRES   REMARKS
MUNCIE         CLEAR     81  71  71 SW3       30.10S
6HR MIN TEMP:  76; 6HR MAX TEMP:  83; 6HR PCP:  0.09;


$$

INZ060-061-067>069-081>083-085>088-280100-
SOUTHWEST INDIANA

CITY           SKY/WX    TMP DP  RH WIND       PRES   REMARKS
EVANSVILLE     PTCLDY    89  73  59 CALM      30.05S HX  97
6HR MIN TEMP:  85; 6HR MAX TEMP:  89;

HUNTINGBURG *+ CLOUDY    86  73  66 CALM      30.07R
6HR MIN TEMP:  84; 6HR MAX TEMP:  90;

WASHINGTON +   CLOUDY    84  75  74 MISG      30.06S
6HR MIN TEMP:  82; 6HR MAX TEMP:  86;


$$

INZ062-063-066-070>080-084-089>092-280100-
SOUTH CENTRAL AND SOUTHEAST INDIANA

CITY           SKY/WX    TMP DP  RH WIND       PRES   REMARKS
BLOOMINGTON    CLEAR     82  73  74 CALM      30.09R
6HR MIN TEMP:  79; 6HR MAX TEMP:  87;

MADISON *+     CLOUDY    79  73  83 CALM      30.12R

$$





USA.gov is the U.S. government's official web portal to all federal, state and local government web resources and services.